Location: Newark
(53.2000°N, 6.1000°W)
Time: 23:13:52
(UTC+00:00)

ISS - Pass Details

Date: 01 October 2020
Orbit: 417 x 420 km, 51.6° (Epoch: 29 October)

Event Time Altitude Azimuth Distance (km) Brightness Sun altitude
Rises 20:39:21 0° 278° (W) 2,372 1.2 -23.9°
Reaches altitude 10° 20:41:58 10° 257° (WSW) 1,504 -0.3 -24.2°
Enters shadow 20:43:22 15° 234° (SW) 1,217 -1.2 -24.4°
